This is the latest recevied weather packets stored in our database for station/object OK4ZAW-16. If no packets are shown the sender has not sent any weather packets the latest 10 day(s).
| Time | Temp. | Humidity | Pressure | Rain* | Wind** | Luminosity | Snow |
|---|---|---|---|---|---|---|---|
| 1777300708 | 15.56° C | 30% | 1022.2 hPa | - | - | 150 W/m² | - |
| 1777300291 | 15.56° C | 30% | 1022.3 hPa | - | - | 150 W/m² | - |
| 1777299874 | 16.11° C | 31% | 1022.2 hPa | - | - | 150 W/m² | - |
| 1777299457 | 15.56° C | 33% | 1022.3 hPa | - | - | 150 W/m² | - |
| 1777298623 | 15° C | 32% | 1022.3 hPa | - | - | 150 W/m² | - |
| 1777298206 | 14.44° C | 33% | 1022.4 hPa | - | - | 150 W/m² | - |
| 1777297789 | 15.56° C | 34% | 1022.4 hPa | - | - | 150 W/m² | - |
| 1777297372 | 14.44° C | 34% | 1022.5 hPa | - | - | 150 W/m² | - |
| 1777296955 | 15° C | 36% | 1022.5 hPa | - | - | 150 W/m² | - |
| 1777296538 | 13.89° C | 39% | 1022.5 hPa | - | - | 150 W/m² | - |
| 1777296121 | 12.78° C | 41% | 1022.5 hPa | - | - | 150 W/m² | - |
| 1777295705 | 11.67° C | 40% | 1022.6 hPa | - | - | 150 W/m² | - |
| 1777295288 | 11.67° C | 42% | 1022.6 hPa | - | - | 150 W/m² | - |
| 1777294871 | 11.67° C | 43% | 1022.7 hPa | - | - | 150 W/m² | - |
| 1777294455 | 11.11° C | 46% | 1022.7 hPa | - | - | 150 W/m² | - |
| 1777294038 | 11.11° C | 48% | 1022.8 hPa | - | - | 150 W/m² | - |
| 1777293205 | 10.56° C | 45% | 1022.8 hPa | - | - | 150 W/m² | - |
| 1777292788 | 11.11° C | 45% | 1022.9 hPa | - | - | 150 W/m² | - |
| 1777292371 | 11.67° C | 48% | 1022.9 hPa | - | - | 150 W/m² | - |
| 1777291955 | 11.11° C | 49% | 1023 hPa | - | - | 150 W/m² | - |
| 1777291538 | 11.67° C | 49% | 1023 hPa | - | - | 150 W/m² | - |
| 1777291121 | 11.67° C | 53% | 1023 hPa | - | - | 150 W/m² | - |
| 1777290704 | 10.56° C | 56% | 1023 hPa | - | - | 150 W/m² | - |
| 1777290288 | 9.44° C | 57% | 1023.2 hPa | - | - | 150 W/m² | - |
| 1777289871 | 8.33° C | 55% | 1023.2 hPa | - | - | 150 W/m² | - |
* Rain since midnight (hover to see other rain measurements)
** Current wind speed in m/s (hover to see current wind gust speed)